When you browse on this site, cookies collect data to enhance your experience and personalize the content and advertising you see.
Visit our Privacy Policy to learn more. By continuing to use the site, you agree to this use of cookies and data.
  • în România
  • Lista ţărilor
  • Pe 7 zile
  • Temperatura apei
  • Hartă satelitară
  • Meteo pe hartă
  • Widget-uri
  • user-avatar
    Intrare

    Meteo pe oră la Darwin

    Astăzi, 16 Iunie, Duminică

    Timp Temperatura Precipitaţii Vânt Presiune Umiditate
    00:00 +23°C° 0 mm 1 m/s 760 mmHg 80%
    01:00 +22°C° 0 mm 1 m/s 759 mmHg 80%
    02:00 +22°C° 0 mm 1 m/s 759 mmHg 81%
    03:00 +21°C° 0 mm 2 m/s 759 mmHg 81%
    04:00 +21°C° 0 mm 2 m/s 759 mmHg 82%
    05:00 +21°C° 0 mm 2 m/s 759 mmHg 82%
    06:00 +20°C° 0 mm 2 m/s 760 mmHg 83%
    07:00 +23°C° 0 mm 2 m/s 760 mmHg 75%
    08:00 +26°C° 0 mm 2 m/s 760 mmHg 67%
    09:00 +28°C° 0 mm 3 m/s 761 mmHg 59%
    10:00 +30°C° 0 mm 3 m/s 760 mmHg 50%
    11:00 +33°C° 0 mm 3 m/s 760 mmHg 42%
    12:00 +35°C° 0 mm 3 m/s 759 mmHg 33%
    13:00 +35°C° 0 mm 3 m/s 759 mmHg 32%
    14:00 +36°C° 0 mm 3 m/s 758 mmHg 31%
    15:00 +36°C° 0 mm 3 m/s 757 mmHg 30%
    16:00 +34°C° 0 mm 3 m/s 758 mmHg 40%
    17:00 +30°C° 0 mm 3 m/s 758 mmHg 50%
    18:00 +27°C° 0 mm 2 m/s 758 mmHg 60%
    19:00 +26°C° 0 mm 2 m/s 759 mmHg 64%
    20:00 +25°C° 0 mm 2 m/s 759 mmHg 69%
    21:00 +24°C° 0 mm 2 m/s 760 mmHg 73%
    22:00 +24°C° 0 mm 1 m/s 760 mmHg 75%
    23:00 +23°C° 0 mm 1 m/s 760 mmHg 77%

    Mâine, 17 Iunie, Luni

    Timp Temperatura Precipitaţii Vânt Presiune Umiditate
    00:00 +21°C° 0 mm 0 m/s 760 mmHg 79%
    01:00 +23°C° 0 mm 1 m/s 760 mmHg 80%
    02:00 +22°C° 0 mm 1 m/s 760 mmHg 80%
    03:00 +22°C° 0 mm 1 m/s 760 mmHg 80%
    04:00 +22°C° 0 mm 1 m/s 760 mmHg 80%
    05:00 +21°C° 0 mm 2 m/s 760 mmHg 80%
    06:00 +21°C° 0 mm 2 m/s 760 mmHg 80%
    07:00 +24°C° 0 mm 3 m/s 761 mmHg 71%
    08:00 +26°C° 0 mm 3 m/s 761 mmHg 62%
    09:00 +28°C° 0 mm 4 m/s 761 mmHg 53%
    10:00 +30°C° 0 mm 4 m/s 761 mmHg 45%
    11:00 +33°C° 0 mm 4 m/s 760 mmHg 38%
    12:00 +35°C° 0 mm 4 m/s 760 mmHg 30%
    13:00 +35°C° 0 mm 4 m/s 759 mmHg 30%
    14:00 +36°C° 0 mm 5 m/s 758 mmHg 30%
    15:00 +36°C° 0 mm 5 m/s 758 mmHg 30%
    16:00 +34°C° 0 mm 4 m/s 758 mmHg 37%
    17:00 +30°C° 0 mm 4 m/s 758 mmHg 45%
    18:00 +28°C° 0 mm 3 m/s 758 mmHg 52%
    19:00 +27°C° 0 mm 3 m/s 759 mmHg 57%
    20:00 +26°C° 0 mm 2 m/s 760 mmHg 61%
    21:00 +25°C° 0 mm 2 m/s 760 mmHg 65%
    22:00 +25°C° 0 mm 2 m/s 760 mmHg 64%
    23:00 +25°C° 0 mm 2 m/s 760 mmHg 62%

    Poimâine, 18 Iunie, Marţi

    Timp Temperatura Precipitaţii Vânt Presiune Umiditate
    00:00 +25°C° 0 mm 2 m/s 760 mmHg 61%
    01:00 +24°C° 0 mm 2 m/s 760 mmHg 63%
    02:00 +23°C° 0 mm 2 m/s 760 mmHg 66%
    03:00 +21°C° 0 mm 2 m/s 760 mmHg 69%
    04:00 +21°C° 0 mm 3 m/s 760 mmHg 67%
    05:00 +20°C° 0 mm 4 m/s 760 mmHg 66%
    06:00 +20°C° 0 mm 5 m/s 761 mmHg 64%
    07:00 +22°C° 0 mm 5 m/s 761 mmHg 59%
    08:00 +24°C° 0 mm 6 m/s 761 mmHg 55%
    09:00 +27°C° 0 mm 6 m/s 762 mmHg 50%
    10:00 +29°C° 0 mm 6 m/s 761 mmHg 44%
    11:00 +32°C° 0 mm 6 m/s 761 mmHg 37%
    12:00 +34°C° 0 mm 5 m/s 760 mmHg 31%
    13:00 +34°C° 0 mm 5 m/s 759 mmHg 30%
    14:00 +35°C° 0 mm 4 m/s 759 mmHg 29%
    15:00 +35°C° 0 mm 4 m/s 758 mmHg 27%
    16:00 +33°C° 0 mm 4 m/s 758 mmHg 31%
    17:00 +31°C° 0 mm 3 m/s 758 mmHg 35%
    18:00 +29°C° 0 mm 3 m/s 759 mmHg 38%
    19:00 +27°C° 0 mm 3 m/s 759 mmHg 40%
    20:00 +26°C° 0 mm 3 m/s 760 mmHg 42%
    21:00 +25°C° 0 mm 3 m/s 760 mmHg 44%
    22:00 +23°C° 0 mm 4 m/s 760 mmHg 42%
    23:00 +23°C° 0 mm 5 m/s 760 mmHg 40%

    19 Iunie, Miercuri

    Timp Temperatura Precipitaţii Vânt Presiune Umiditate
    00:00 +22°C° 0 mm 6 m/s 760 mmHg 37%
    01:00 +22°C° 0 mm 6 m/s 760 mmHg 39%
    02:00 +21°C° 0 mm 7 m/s 760 mmHg 40%
    03:00 +20°C° 0 mm 7 m/s 760 mmHg 42%
    04:00 +18°C° 0 mm 7 m/s 760 mmHg 42%
    05:00 +18°C° 0 mm 7 m/s 761 mmHg 43%
    06:00 +17°C° 0 mm 7 m/s 761 mmHg 44%
    07:00 +20°C° 0 mm 7 m/s 761 mmHg 39%
    08:00 +21°C° 0 mm 7 m/s 762 mmHg 34%
    09:00 +23°C° 0 mm 7 m/s 762 mmHg 30%
    10:00 +26°C° 0 mm 7 m/s 762 mmHg 26%
    11:00 +28°C° 0 mm 6 m/s 761 mmHg 22%
    12:00 +30°C° 0 mm 5 m/s 760 mmHg 17%
    13:00 +30°C° 0 mm 5 m/s 760 mmHg 17%
    14:00 +32°C° 0 mm 4 m/s 759 mmHg 16%
    15:00 +33°C° 0 mm 3 m/s 758 mmHg 16%
    16:00 +29°C° 0 mm 3 m/s 758 mmHg 19%
    17:00 +27°C° 0 mm 2 m/s 758 mmHg 21%
    18:00 +25°C° 0 mm 2 m/s 758 mmHg 24%
    19:00 +24°C° 0 mm 3 m/s 759 mmHg 26%
    20:00 +22°C° 0 mm 4 m/s 760 mmHg 27%
    21:00 +20°C° 0 mm 4 m/s 760 mmHg 28%
    22:00 +20°C° 0 mm 5 m/s 760 mmHg 29%
    23:00 +19°C° 0 mm 6 m/s 760 mmHg 29%

    20 Iunie, Joi

    Timp Temperatura Precipitaţii Vânt Presiune Umiditate
    00:00 +19°C° 0 mm 6 m/s 760 mmHg 30%
    01:00 +17°C° 0 mm 6 m/s 760 mmHg 32%
    02:00 +16°C° 0 mm 6 m/s 760 mmHg 33%
    03:00 +15°C° 0 mm 6 m/s 760 mmHg 35%
    04:00 +15°C° 0 mm 6 m/s 761 mmHg 37%
    05:00 +14°C° 0 mm 6 m/s 761 mmHg 39%
    06:00 +13°C° 0 mm 6 m/s 761 mmHg 41%
    07:00 +15°C° 0 mm 6 m/s 762 mmHg 38%
    08:00 +19°C° 0 mm 6 m/s 762 mmHg 36%
    09:00 +21°C° 0 mm 6 m/s 762 mmHg 34%
    10:00 +23°C° 0 mm 6 m/s 762 mmHg 30%
    11:00 +27°C° 0 mm 5 m/s 761 mmHg 26%
    12:00 +29°C° 0 mm 5 m/s 760 mmHg 22%
    13:00 +30°C° 0 mm 4 m/s 760 mmHg 20%
    14:00 +30°C° 0 mm 4 m/s 759 mmHg 19%
    15:00 +31°C° 0 mm 3 m/s 758 mmHg 17%
    16:00 +29°C° 0 mm 3 m/s 758 mmHg 21%
    17:00 +27°C° 0 mm 3 m/s 758 mmHg 24%
    18:00 +25°C° 0 mm 2 m/s 759 mmHg 28%
    19:00 +24°C° 0 mm 3 m/s 759 mmHg 28%
    20:00 +22°C° 0 mm 4 m/s 759 mmHg 29%
    21:00 +20°C° 0 mm 5 m/s 760 mmHg 29%
    22:00 +20°C° 0 mm 5 m/s 760 mmHg 29%
    23:00 +19°C° 0 mm 6 m/s 760 mmHg 30%

    21 Iunie, Vineri

    Timp Temperatura Precipitaţii Vânt Presiune Umiditate
    00:00 +18°C° 0 mm 7 m/s 760 mmHg 30%
    01:00 +17°C° 0 mm 7 m/s 760 mmHg 32%
    02:00 +16°C° 0 mm 7 m/s 760 mmHg 33%
    03:00 +16°C° 0 mm 7 m/s 760 mmHg 34%
    04:00 +15°C° 0 mm 7 m/s 760 mmHg 36%
    05:00 +15°C° 0 mm 7 m/s 760 mmHg 37%
    06:00 +15°C° 0 mm 7 m/s 761 mmHg 39%
    07:00 +17°C° 0 mm 7 m/s 761 mmHg 37%
    08:00 +18°C° 0 mm 7 m/s 761 mmHg 35%
    09:00 +21°C° 0 mm 7 m/s 762 mmHg 33%
    10:00 +23°C° 0 mm 6 m/s 761 mmHg 30%
    11:00 +26°C° 0 mm 5 m/s 761 mmHg 28%
    12:00 +28°C° 0 mm 5 m/s 760 mmHg 26%
    13:00 +29°C° 0 mm 4 m/s 759 mmHg 25%
    14:00 +30°C° 0 mm 3 m/s 759 mmHg 24%
    15:00 +31°C° 0 mm 3 m/s 758 mmHg 22%
    16:00 +29°C° 0 mm 2 m/s 758 mmHg 28%
    17:00 +27°C° 0 mm 2 m/s 758 mmHg 33%
    18:00 +24°C° 0 mm 2 m/s 758 mmHg 39%
    19:00 +23°C° 0 mm 2 m/s 759 mmHg 39%
    20:00 +21°C° 0 mm 2 m/s 759 mmHg 39%
    21:00 +20°C° 0 mm 2 m/s 760 mmHg 39%
    22:00 +20°C° 0 mm 4 m/s 760 mmHg 38%
    23:00 +19°C° 0 mm 5 m/s 760 mmHg 37%
    Arată mai mult